Regional Weather Roundup
Issued by NWS

Home | Current Version | Previous Version | Text Only | Print | Product List | Glossary On
Versions: 1 2 3 4 5 6 7 8 9 10 11 12 13 14 15 16 17 18 19 20 21 22 23 24 25 26 27 28 29 30 31 32 33 34 35 36 37 38 39 40 41 42 43 44 45 46 47 48 49 50
000
ASUS43 KMPX 050710
RWRMN
WEATHER ROUNDUP FOR MINNESOTA
NATIONAL WEATHER SERVICE TWIN CITIES/CHANHASSEN MN
200 AM CDT TUE MAY 05 2015


NOTE: "FAIR" INDICATES FEW OR NO CLOUDS BELOW 12,000 FEET WITH NO
SIGNIFICANT WEATHER AND/OR OBSTRUCTIONS TO VISIBILITY. N/A MEANS
CURRENT SKY AND/OR WEATHER CONDITIONS ARE NOT AVAILABLE.

MNZ060>063-068>070-050800-
   Twin Cities Metro

CITY           SKY/WX    TMP DP  RH WIND       PRES   REMARKS
TWIN CITIES    PTCLDY    56  31  38 NE8       30.20S
ST PAUL        PTCLDY    52  31  44 CALM      30.21S
CRYSTAL        CLEAR     52  29  41 NE3       30.20S
BLAINE         CLEAR     50  30  46 NE5       30.21F
LAKEVILLE      MOCLDY    45  37  76 CALM      30.19F
EDEN PRAIRIE   PTCLDY    54  29  38 NE7       30.18F
SOUTH ST PAUL  PTCLDY    56  30  36 N3        30.20S
LAKE ELMO      FAIR      46  34  61 NE3       30.22S
$$
MNZ001>005-007-008-013>017-022>024-027-028-050800-
   Northwest Minnesota

CITY           SKY/WX    TMP DP  RH WIND       PRES   REMARKS
BEMIDJI        CLEAR     36  27  69 CALM      30.23S
HALLOCK        CLEAR     41  18  38 S8        30.16S
ROSEAU         CLEAR     45  28  53 SE6       30.19S
WARROAD        CLEAR     43  32  65 CALM      30.20S
THIEF RVR FALL CLEAR     50  25  37 SE9       30.20S
CROOKSTON      CLEAR     45  28  53 SE8       30.20S
FOSSTON        CLEAR     45  25  45 SE5       30.22R
DETROIT LAKES  CLEAR     46  32  57 CALM      30.23S
MOORHEAD       CLEAR     46  27  46 SE5       30.20S
PARK RAPIDS    CLEAR     42  30  62 CALM      30.23S
MAHNOMEN       FAIR      47  31  53 SE8       30.21S
$$
MNZ006-009>011-018-025>026-050800-
   North Central Minnesota

CITY           SKY/WX    TMP DP  RH WIND       PRES   REMARKS
BAUDETTE       CLEAR     37  30  75 SE3       30.21R
FLAG ISLAND    CLEAR     48  39  71 SE3       30.18S
INTL FALLS     CLEAR     31  27  85 CALM      30.22R
WASKISH        CLEAR     43  28  56 CALM      30.22S
BIG FORK       CLEAR     32  27  80 CALM      30.24S
LONGVILLE      CLEAR     34  30  86 CALM      30.24R
GRAND RAPIDS   CLEAR     37  25  60 S3        30.24S
CRANE LAKE     CLEAR     28  27  93 CALM      30.26S
ORR            CLEAR     43  27  52 CALM      30.22S
COOK           CLEAR     32  27  80 CALM      30.25S HAZE
WALKER         FAIR      35  29  77 CALM      30.24R
$$
MNZ012-019>021-037-050800-
   Northeast Minnesota

CITY           SKY/WX    TMP DP  RH WIND       PRES   REMARKS
DULUTH         CLEAR     40  28  62 CALM      30.25R
ELY            CLEAR     30  28  93 CALM      30.26R
HIBBING        CLEAR     32  25  75 NW5       30.24S WCI  27
EVELETH        CLEAR     32  30  93 CALM      30.26S
DULUTH HARBOR  CLEAR     46  37  71 CALM      30.27R
TWO HARBORS    CLEAR     46  28  49 N3        30.24S
SILVER BAY     CLEAR     34  27  75 CALM      30.25S
GRAND MARAIS     N/A     40  30  67 N3        30.25S
G MARAIS ARPRT CLEAR     32  25  74 CALM      30.26S
$$
MNZ029>031-032-039>041-046>048-054>057-064-050800-
   West Central Minnesota

CITY           SKY/WX    TMP DP  RH WIND       PRES   REMARKS
FERGUS FALLS   CLEAR     54  30  40 E7        30.21F
WHEATON        CLEAR     39  28  65 SE8       30.21S
MORRIS         CLEAR     48  30  49 E8        30.19S
ALEXANDRIA     CLEAR     50  26  39 SE7       30.22S
ELBOW LAKE     FAIR      52  31  43 E8        30.20S
WADENA         CLEAR     37  30  75 CALM      30.23S
GLENWOOD       CLEAR     46  30  53 E8        30.22S
APPLETON       CLEAR     46  32  57 S3        30.19S
BENSON         CLEAR     50  28  43 E6        30.20S
ORTONVILLE     CLEAR     52  32  46 SE6       30.19R
MADISON        CLEAR     45  28  53 E8        30.19S
WILLMAR        FAIR      55  27  33 E12       30.21F
$$
MNZ033>034-036-042>043-049>051-058-059-050800-
   Central Minnesota

CITY           SKY/WX    TMP DP  RH WIND       PRES   REMARKS
ST CLOUD       CLEAR     51  22  31 NE3       30.22S
SAUK CENTRE    FAIR      49  28  44 E9        30.22S
PAYNESVILLE    CLEAR     44  31  60 N3        30.22S
AITKIN         CLEAR     34  28  80 CALM      30.23R
PINE RIVER     CLEAR     36  28  75 CALM      30.27S
BRAINERD       CLEAR     37  27  67 NE5       30.24R
STAPLES        CLEAR     39  30  70 CALM      30.23S
LONG PRAIRIE   FAIR      43  34  70 CALM      30.23S
LITTLE FALLS   CLEAR     39  32  75 CALM      30.23S
LITCHFIELD     PTCLDY    52  28  40 NE3       30.21F
BUFFALO        CLEAR     49  30  48 N3        30.22F
MAPLE LAKE     CLEAR     50  30  47 N3        30.22F
$$
MNZ037-044-045-052-053-050800-
   East Central Minnesota

CITY           SKY/WX    TMP DP  RH WIND       PRES   REMARKS
PRINCETON      CLEAR     48  25  40 N3        30.23S
MORA           CLEAR     37  30  75 CALM      30.26R
CAMBRIDGE      CLEAR     46  30  53 CALM      30.22R
RUSH CITY      PTCLDY    50  24  36 NE5       30.24S
MOOSE LAKE     CLEAR     34  32  93 CALM      30.23R
HINCKLEY       FAIR      36  30  80 CALM      30.25R
CLOQUET        CLEAR     36  25  64 CALM      30.25R
MCGREGOR       CLEAR     36  32  87 CALM      30.25R
$$
MNZ071>073-080-081-089-090-097-098-050800-
   Southwest Minnesota

CITY           SKY/WX    TMP DP  RH WIND       PRES   REMARKS
MONTEVIDEO     CLEAR     46  30  53 SE3       30.20S
GRANITE FALLS  PTCLDY    49  29  45 NE6       30.20F
CANBY          CLEAR     41  30  65 CALM      30.19F
MARSHALL       PTCLDY    45  21  39 CALM      30.18S
REDWOOD FALLS  MOCLDY    54  28  36 E9        30.18F
OLIVIA         PTCLDY    50  28  43 E6        30.18F
PIPESTONE      PTCLDY    52  28  40 E3        30.16S
WINDOM         MOCLDY    48  32  53 CALM      30.16F
WORTHINGTON    MOCLDY    48  28  46 NE6       30.15F
JACKSON        CLOUDY    54  32  43 E9        30.15F
TRACY          MOCLDY    52  31  44 CALM      30.17F
SLAYTON        MOCLDY    52  29  42 CALM      30.17F
$$
MNZ065>067-074>077-082>085-091>093-050800-
   South Central Minnesota

CITY           SKY/WX    TMP DP  RH WIND       PRES   REMARKS
MANKATO        MOCLDY    55  37  50 NE7       30.17F
NEW ULM        MOCLDY    54  30  40 NE7       30.17F
ST JAMES       MOCLDY    52  30  43 N6        30.17F
FAIRMONT       CLOUDY    55  30  38 NE8       30.14F
GLENCOE        PTCLDY    52  33  48 N5        30.19F
FARIBAULT      MOCLDY    46  39  76 CALM      30.18F
OWATONNA       CLOUDY    50  34  53 CALM      30.17F
WASECA         CLOUDY    52  34  50 NE6       30.18S
ALBERT LEA     CLOUDY    55  39  54 NE6       30.15F
$$
MNZ078>079-086>088-094>096-050800-
   Southeast Minnesota

CITY           SKY/WX    TMP DP  RH WIND       PRES   REMARKS
ROCHESTER      CLOUDY    56  37  49 NE9       30.18F
RED WING       MOCLDY    48  41  76 CALM      30.18F
STANTON        MOCLDY    44  37  76 CALM      30.18S
DODGE CENTER   CLOUDY    52  36  54 NE5       30.17F
WINONA         CLOUDY    52  45  76 CALM      30.18F
AUSTIN         CLOUDY    54  39  58 NE5       30.15F
PRESTON        CLOUDY    56  38  52 NE7       30.16F
$$
ABBREVIATIONS USED IN REMARKS
   TC - TEMPERATURES IN CELSIUS
  WCI - WIND CHILL INDEX
   HX - HEAT INDEX
  VSB - VISIBILITY
$$


USA.gov is the U.S. government's official web portal to all federal, state and local government web resources and services.